Time,TemperatureF,DewpointF,PressureIn,WindDirection,WindDirectionDegrees,WindSpeedMPH,WindSpeedGustMPH,Humidity,HourlyPrecipIn,Conditions,Clouds,dailyrainin,SoftwareType,DateUTC
2013-05-27 00:00:00,51.2,38.2,30.25,East,84,1.0,1.0,61,0.00,,,0.00,Wunderground v.1.15,2013-05-27 04:00:00,
2013-05-27 00:01:00,51.3,38.3,30.24,East,84,1.0,1.0,61,0.00,,,0.00,Wunderground v.1.15,2013-05-27 04:01:00,
2013-05-27 00:02:00,51.3,38.3,30.24,East,84,0.0,1.0,61,0.00,,,0.00,Wunderground v.1.15,2013-05-27 04:02:00,
2013-05-27 00:04:00,51.3,37.9,30.24,East,84,0.0,1.0,60,0.00,,,0.00,Wunderground v.1.15,2013-05-27 04:04:00,
2013-05-27 00:07:00,51.1,38.1,30.25,East,84,0.0,1.0,61,0.00,,,0.00,Wunderground v.1.15,2013-05-27 04:07:00,
2013-05-27 00:12:00,51.0,38.4,30.25,East,84,0.0,1.0,62,0.00,,,0.00,Wunderground v.1.15,2013-05-27 04:12:00,
2013-05-27 00:17:00,51.4,38.4,30.25,East,84,0.0,1.0,61,0.00,,,0.00,Wunderground v.1.15,2013-05-27 04:17:00,
2013-05-27 00:22:00,51.5,38.1,30.24,East,84,1.0,2.0,60,0.00,,,0.00,Wunderground v.1.15,2013-05-27 04:22:00,
2013-05-27 00:27:00,51.5,37.2,30.25,East,84,1.0,2.0,58,0.00,,,0.00,Wunderground v.1.15,2013-05-27 04:27:00,
2013-05-27 00:33:00,51.4,37.1,30.25,East,84,1.0,1.0,58,0.00,,,0.00,Wunderground v.1.15,2013-05-27 04:33:00,
2013-05-27 00:39:00,51.0,37.6,30.25,East,84,0.0,1.0,60,0.00,,,0.00,Wunderground v.1.15,2013-05-27 04:39:00,
2013-05-27 00:44:00,51.1,37.7,30.25,East,84,0.0,1.0,60,0.00,,,0.00,Wunderground v.1.15,2013-05-27 04:44:00,
2013-05-27 00:49:00,50.8,38.7,30.25,East,84,0.0,1.0,63,0.00,,,0.00,Wunderground v.1.15,2013-05-27 04:49:00,
2013-05-27 00:55:00,50.3,38.2,30.25,East,84,0.0,0.0,63,0.00,,,0.00,Wunderground v.1.15,2013-05-27 04:55:00,
2013-05-27 01:00:00,49.5,37.8,30.25,East,84,0.0,0.0,64,0.00,,,0.00,Wunderground v.1.15,2013-05-27 05:00:00,
2013-05-27 01:05:00,48.7,37.8,30.25,East,84,0.0,0.0,66,0.00,,,0.00,Wunderground v.1.15,2013-05-27 05:05:00,
2013-05-27 01:10:00,48.1,37.7,30.25,East,84,0.0,0.0,67,0.00,,,0.00,Wunderground v.1.15,2013-05-27 05:10:00,
2013-05-27 01:16:00,48.2,38.1,30.24,East,84,0.0,1.0,68,0.00,,,0.00,Wunderground v.1.15,2013-05-27 05:16:00,
2013-05-27 01:21:00,47.0,38.1,30.24,East,84,1.0,1.0,71,0.00,,,0.00,Wunderground v.1.15,2013-05-27 05:21:00,
2013-05-27 01:27:00,46.6,38.4,30.24,East,84,0.0,1.0,73,0.00,,,0.00,Wunderground v.1.15,2013-05-27 05:27:00,
2013-05-27 01:32:00,47.1,38.5,30.24,East,84,0.0,0.0,72,0.00,,,0.00,Wunderground v.1.15,2013-05-27 05:32:00,
2013-05-27 01:37:00,47.8,38.5,30.24,East,84,0.0,0.0,70,0.00,,,0.00,Wunderground v.1.15,2013-05-27 05:37:00,
2013-05-27 01:42:00,47.8,38.8,30.24,East,84,0.0,0.0,71,0.00,,,0.00,Wunderground v.1.15,2013-05-27 05:42:00,
2013-05-27 01:48:00,47.0,38.8,30.24,East,84,0.0,1.0,73,0.00,,,0.00,Wunderground v.1.15,2013-05-27 05:48:00,
2013-05-27 01:54:00,46.8,38.2,30.24,East,84,1.0,1.0,72,0.00,,,0.00,Wunderground v.1.15,2013-05-27 05:54:00,
2013-05-27 01:59:00,46.5,38.0,30.24,East,84,0.0,1.0,72,0.00,,,0.00,Wunderground v.1.15,2013-05-27 05:59:00,
2013-05-27 02:04:00,46.5,38.3,30.24,East,84,0.0,0.0,73,0.00,,,0.00,Wunderground v.1.15,2013-05-27 06:04:00,
2013-05-27 02:10:00,46.7,38.5,30.23,East,84,0.0,0.0,73,0.00,,,0.00,Wunderground v.1.15,2013-05-27 06:10:00,
2013-05-27 02:15:00,46.7,37.8,30.23,East,84,0.0,0.0,71,0.00,,,0.00,Wunderground v.1.15,2013-05-27 06:15:00,
2013-05-27 02:20:00,46.6,38.4,30.23,East,84,0.0,0.0,73,0.00,,,0.00,Wunderground v.1.15,2013-05-27 06:20:00,
2013-05-27 02:26:00,46.6,38.4,30.24,East,84,0.0,0.0,73,0.00,,,0.00,Wunderground v.1.15,2013-05-27 06:26:00,
2013-05-27 02:31:00,46.9,38.3,30.24,East,84,0.0,0.0,72,0.00,,,0.00,Wunderground v.1.15,2013-05-27 06:31:00,
2013-05-27 02:36:00,46.6,38.1,30.24,East,84,0.0,0.0,72,0.00,,,0.00,Wunderground v.1.15,2013-05-27 06:36:00,
2013-05-27 02:42:00,46.2,38.0,30.24,East,84,0.0,1.0,73,0.00,,,0.00,Wunderground v.1.15,2013-05-27 06:42:00,
2013-05-27 02:47:00,45.3,37.5,30.23,East,84,0.0,1.0,74,0.00,,,0.00,Wunderground v.1.15,2013-05-27 06:47:00,
2013-05-27 02:52:00,44.9,37.8,30.23,East,84,0.0,0.0,76,0.00,,,0.00,Wunderground v.1.15,2013-05-27 06:52:00,
2013-05-27 02:58:00,44.8,37.4,30.23,East,84,0.0,1.0,75,0.00,,,0.00,Wunderground v.1.15,2013-05-27 06:58:00,
2013-05-27 03:04:00,45.4,37.9,30.23,East,84,0.0,0.0,75,0.00,,,0.00,Wunderground v.1.15,2013-05-27 07:04:00,
2013-05-27 03:09:00,45.5,38.0,30.23,East,84,0.0,0.0,75,0.00,,,0.00,Wunderground v.1.15,2013-05-27 07:09:00,
2013-05-27 03:15:00,45.4,36.9,30.23,East,84,0.0,0.0,72,0.00,,,0.00,Wunderground v.1.15,2013-05-27 07:15:00,
2013-05-27 03:20:00,45.3,36.1,30.23,East,84,0.0,0.0,70,0.00,,,0.00,Wunderground v.1.15,2013-05-27 07:20:00,
2013-05-27 03:25:00,44.8,36.3,30.23,East,84,0.0,0.0,72,0.00,,,0.00,Wunderground v.1.15,2013-05-27 07:25:00,
2013-05-27 03:30:00,44.2,36.8,30.23,East,84,0.0,0.0,75,0.00,,,0.00,Wunderground v.1.15,2013-05-27 07:30:00,
2013-05-27 03:35:00,44.4,37.0,30.22,East,84,0.0,0.0,75,0.00,,,0.00,Wunderground v.1.15,2013-05-27 07:35:00,
2013-05-27 03:41:00,44.5,37.4,30.22,East,84,0.0,0.0,76,0.00,,,0.00,Wunderground v.1.15,2013-05-27 07:41:00,
2013-05-27 03:46:00,44.3,37.2,30.22,East,84,0.0,0.0,76,0.00,,,0.00,Wunderground v.1.15,2013-05-27 07:46:00,
2013-05-27 03:52:00,44.2,37.1,30.22,East,84,0.0,0.0,76,0.00,,,0.00,Wunderground v.1.15,2013-05-27 07:52:00,
2013-05-27 03:57:00,44.2,37.4,30.22,East,84,0.0,0.0,77,0.00,,,0.00,Wunderground v.1.15,2013-05-27 07:57:00,
2013-05-27 04:02:00,44.1,37.3,30.22,East,84,0.0,0.0,77,0.00,,,0.00,Wunderground v.1.15,2013-05-27 08:02:00,
2013-05-27 04:08:00,44.4,37.3,30.23,East,84,0.0,0.0,76,0.00,,,0.00,Wunderground v.1.15,2013-05-27 08:08:00,
2013-05-27 04:13:00,44.5,37.4,30.22,East,84,0.0,0.0,76,0.00,,,0.00,Wunderground v.1.15,2013-05-27 08:13:00,
2013-05-27 04:18:00,44.5,37.7,30.22,East,84,0.0,0.0,77,0.00,,,0.00,Wunderground v.1.15,2013-05-27 08:18:00,
2013-05-27 04:23:00,44.2,37.1,30.22,East,84,0.0,0.0,76,0.00,,,0.00,Wunderground v.1.15,2013-05-27 08:23:00,
2013-05-27 04:29:00,43.9,37.2,30.23,East,84,0.0,0.0,77,0.00,,,0.00,Wunderground v.1.15,2013-05-27 08:29:00,
2013-05-27 04:34:00,44.0,36.9,30.22,East,84,0.0,0.0,76,0.00,,,0.00,Wunderground v.1.15,2013-05-27 08:34:00,
2013-05-27 04:39:00,43.6,37.2,30.22,East,84,0.0,0.0,78,0.00,,,0.00,Wunderground v.1.15,2013-05-27 08:39:00,
2013-05-27 04:45:00,44.5,38.1,30.22,East,84,0.0,0.0,78,0.00,,,0.00,Wunderground v.1.15,2013-05-27 08:45:00,
2013-05-27 04:50:00,44.7,37.9,30.22,East,84,0.0,0.0,77,0.00,,,0.00,Wunderground v.1.15,2013-05-27 08:50:00,
2013-05-27 04:55:00,44.9,38.1,30.22,East,84,0.0,0.0,77,0.00,,,0.00,Wunderground v.1.15,2013-05-27 08:55:00,
2013-05-27 05:00:00,44.8,37.7,30.22,East,84,0.0,0.0,76,0.00,,,0.00,Wunderground v.1.15,2013-05-27 09:00:00,
2013-05-27 05:06:00,43.8,37.4,30.22,East,84,0.0,0.0,78,0.00,,,0.00,Wunderground v.1.15,2013-05-27 09:06:00,
2013-05-27 05:11:00,43.7,37.3,30.22,East,84,0.0,1.0,78,0.00,,,0.00,Wunderground v.1.15,2013-05-27 09:11:00,
2013-05-27 05:17:00,43.2,36.8,30.22,East,84,0.0,1.0,78,0.00,,,0.00,Wunderground v.1.15,2013-05-27 09:17:00,
2013-05-27 05:22:00,43.4,37.3,30.22,East,84,0.0,0.0,79,0.00,,,0.00,Wunderground v.1.15,2013-05-27 09:22:00,
2013-05-27 05:27:00,43.4,37.6,30.21,East,84,0.0,0.0,80,0.00,,,0.00,Wunderground v.1.15,2013-05-27 09:27:00,
2013-05-27 05:33:00,44.2,38.1,30.21,East,84,0.0,1.0,79,0.00,,,0.00,Wunderground v.1.15,2013-05-27 09:33:00,
2013-05-27 05:39:00,45.1,38.3,30.21,East,84,0.0,1.0,77,0.00,,,0.00,Wunderground v.1.15,2013-05-27 09:39:00,
2013-05-27 05:44:00,45.1,37.6,30.22,East,84,0.0,1.0,75,0.00,,,0.00,Wunderground v.1.15,2013-05-27 09:44:00,
2013-05-27 05:50:00,44.7,37.3,30.22,East,84,1.0,1.0,75,0.00,,,0.00,Wunderground v.1.15,2013-05-27 09:50:00,
2013-05-27 05:55:00,44.7,37.3,30.22,East,84,0.0,1.0,75,0.00,,,0.00,Wunderground v.1.15,2013-05-27 09:55:00,
2013-05-27 06:00:00,44.7,37.3,30.22,East,84,0.0,0.0,75,0.00,,,0.00,Wunderground v.1.15,2013-05-27 10:00:00,
2013-05-27 06:06:00,44.6,36.8,30.22,East,84,0.0,1.0,74,0.00,,,0.00,Wunderground v.1.15,2013-05-27 10:06:00,
2013-05-27 06:11:00,44.9,37.5,30.22,East,84,0.0,0.0,75,0.00,,,0.00,Wunderground v.1.15,2013-05-27 10:11:00,
2013-05-27 06:16:00,44.8,37.0,30.22,East,84,0.0,1.0,74,0.00,,,0.00,Wunderground v.1.15,2013-05-27 10:16:00,
2013-05-27 06:22:00,44.9,37.1,30.22,East,84,1.0,2.0,74,0.00,,,0.00,Wunderground v.1.15,2013-05-27 10:22:00,
2013-05-27 06:28:00,45.5,37.0,30.22,East,84,1.0,2.0,72,0.00,,,0.00,Wunderground v.1.15,2013-05-27 10:28:00,
2013-05-27 06:33:00,45.9,37.7,30.22,East,84,0.0,1.0,73,0.00,,,0.00,Wunderground v.1.15,2013-05-27 10:33:00,
2013-05-27 06:38:00,46.1,37.6,30.22,East,84,0.0,1.0,72,0.00,,,0.00,Wunderground v.1.15,2013-05-27 10:38:00,
2013-05-27 06:44:00,46.3,37.0,30.22,East,84,1.0,2.0,70,0.00,,,0.00,Wunderground v.1.15,2013-05-27 10:44:00,
2013-05-27 06:50:00,46.3,37.0,30.22,East,84,1.0,1.0,70,0.00,,,0.00,Wunderground v.1.15,2013-05-27 10:50:00,
2013-05-27 06:55:00,46.2,37.3,30.22,East,84,1.0,3.0,71,0.00,,,0.00,Wunderground v.1.15,2013-05-27 10:55:00,
2013-05-27 07:00:00,46.4,37.5,30.22,East,84,1.0,2.0,71,0.00,,,0.00,Wunderground v.1.15,2013-05-27 11:00:00,
2013-05-27 07:06:00,46.7,37.4,30.22,East,84,2.0,5.0,70,0.00,,,0.00,Wunderground v.1.15,2013-05-27 11:06:00,
2013-05-27 07:11:00,47.1,37.8,30.22,East,84,2.0,3.0,70,0.00,,,0.00,Wunderground v.1.15,2013-05-27 11:11:00,
2013-05-27 07:16:00,47.4,38.1,30.23,East,84,2.0,3.0,70,0.00,,,0.00,Wunderground v.1.15,2013-05-27 11:16:00,
2013-05-27 07:22:00,47.8,38.5,30.23,East,84,1.0,2.0,70,0.00,,,0.00,Wunderground v.1.15,2013-05-27 11:22:00,
2013-05-27 07:27:00,48.0,39.0,30.24,East,84,1.0,3.0,71,0.00,,,0.00,Wunderground v.1.15,2013-05-27 11:27:00,
2013-05-27 07:32:00,48.5,39.2,30.23,East,84,2.0,2.0,70,0.00,,,0.00,Wunderground v.1.15,2013-05-27 11:32:00,
2013-05-27 07:38:00,48.9,39.5,30.24,East,84,2.0,3.0,70,0.00,,,0.00,Wunderground v.1.15,2013-05-27 11:38:00,
2013-05-27 07:43:00,49.3,39.9,30.23,East,84,2.0,2.0,70,0.00,,,0.00,Wunderground v.1.15,2013-05-27 11:43:00,
2013-05-27 07:48:00,49.6,39.5,30.23,ESE,102,3.0,6.0,68,0.00,,,0.00,Wunderground v.1.15,2013-05-27 11:48:00,
2013-05-27 07:53:00,49.8,39.3,30.23,ESE,102,3.0,3.0,67,0.00,,,0.00,Wunderground v.1.15,2013-05-27 11:53:00,
2013-05-27 07:59:00,50.1,38.4,30.23,East,96,3.0,6.0,64,0.00,,,0.00,Wunderground v.1.15,2013-05-27 11:59:00,
2013-05-27 08:05:00,50.4,37.9,30.23,ESE,104,4.0,7.0,62,0.00,,,0.00,Wunderground v.1.15,2013-05-27 12:05:00,
2013-05-27 08:10:00,50.8,37.8,30.23,ESE,106,4.0,7.0,61,0.00,,,0.00,Wunderground v.1.15,2013-05-27 12:10:00,
2013-05-27 08:15:00,51.5,38.5,30.22,ESE,106,3.0,5.0,61,0.00,,,0.00,Wunderground v.1.15,2013-05-27 12:15:00,
2013-05-27 08:21:00,52.0,38.5,30.22,ESE,105,3.0,3.0,60,0.00,,,0.00,Wunderground v.1.15,2013-05-27 12:21:00,
2013-05-27 08:27:00,52.2,38.7,30.22,ESE,111,3.0,7.0,60,0.00,,,0.00,Wunderground v.1.15,2013-05-27 12:27:00,
2013-05-27 08:32:00,52.4,38.9,30.22,ESE,111,3.0,3.0,60,0.00,,,0.00,Wunderground v.1.15,2013-05-27 12:32:00,
2013-05-27 08:37:00,52.9,39.4,30.22,ESE,111,3.0,4.0,60,0.00,,,0.00,Wunderground v.1.15,2013-05-27 12:37:00,
2013-05-27 08:42:00,53.3,38.9,30.22,ESE,110,3.0,3.0,58,0.00,,,0.00,Wunderground v.1.15,2013-05-27 12:42:00,
2013-05-27 08:47:00,53.7,38.4,30.21,ESE,110,3.0,4.0,56,0.00,,,0.00,Wunderground v.1.15,2013-05-27 12:47:00,
2013-05-27 08:53:00,54.5,38.7,30.22,ESE,108,3.0,5.0,55,0.00,,,0.00,Wunderground v.1.15,2013-05-27 12:53:00,
2013-05-27 08:58:00,54.6,38.3,30.22,ESE,106,3.0,5.0,54,0.00,,,0.00,Wunderground v.1.15,2013-05-27 12:58:00,
2013-05-27 09:03:00,55.1,38.7,30.23,ESE,106,3.0,4.0,54,0.00,,,0.00,Wunderground v.1.15,2013-05-27 13:03:00,
2013-05-27 09:08:00,56.1,37.7,30.23,ESE,106,2.0,5.0,50,0.00,,,0.00,Wunderground v.1.15,2013-05-27 13:08:00,
2013-05-27 09:14:00,56.4,37.5,30.23,ESE,119,3.0,5.0,49,0.00,,,0.00,Wunderground v.1.15,2013-05-27 13:14:00,
2013-05-27 09:20:00,56.9,38.4,30.22,SE,126,3.0,3.0,50,0.00,,,0.00,Wunderground v.1.15,2013-05-27 13:20:00,
2013-05-27 09:25:00,57.1,37.6,30.22,SE,125,2.0,5.0,48,0.00,,,0.00,Wunderground v.1.15,2013-05-27 13:25:00,
2013-05-27 09:30:00,57.3,38.3,30.22,ESE,113,3.0,5.0,49,0.00,,,0.00,Wunderground v.1.15,2013-05-27 13:30:00,
2013-05-27 09:36:00,57.9,38.3,30.22,SE,132,4.0,5.0,48,0.00,,,0.00,Wunderground v.1.15,2013-05-27 13:36:00,
2013-05-27 09:41:00,58.3,38.1,30.22,SE,144,4.0,4.0,47,0.00,,,0.00,Wunderground v.1.15,2013-05-27 13:41:00,
2013-05-27 09:47:00,58.5,38.9,30.22,SE,138,4.0,4.0,48,0.00,,,0.00,Wunderground v.1.15,2013-05-27 13:47:00,
2013-05-27 09:52:00,59.3,39.6,30.22,SE,138,3.0,6.0,48,0.00,,,0.00,Wunderground v.1.15,2013-05-27 13:52:00,
2013-05-27 09:57:00,59.4,39.1,30.21,SE,135,3.0,7.0,47,0.00,,,0.00,Wunderground v.1.15,2013-05-27 13:57:00,
2013-05-27 10:02:00,59.6,39.9,30.21,SSE,147,4.0,4.0,48,0.00,,,0.00,Wunderground v.1.15,2013-05-27 14:02:00,
2013-05-27 10:07:00,60.0,39.7,30.21,SE,132,4.0,8.0,47,0.00,,,0.00,Wunderground v.1.15,2013-05-27 14:07:00,
2013-05-27 10:13:00,60.4,38.9,30.21,ESE,121,4.0,5.0,45,0.00,,,0.00,Wunderground v.1.15,2013-05-27 14:13:00,
2013-05-27 10:18:00,61.2,39.7,30.21,ESE,123,4.0,5.0,45,0.00,,,0.00,Wunderground v.1.15,2013-05-27 14:18:00,
2013-05-27 10:23:00,62.2,38.8,30.21,East,99,3.0,5.0,42,0.00,,,0.00,Wunderground v.1.15,2013-05-27 14:23:00,
2013-05-27 10:29:00,61.9,38.5,30.20,ESE,109,4.0,5.0,42,0.00,,,0.00,Wunderground v.1.15,2013-05-27 14:29:00,
2013-05-27 10:34:00,62.7,38.6,30.20,ESE,104,4.0,7.0,41,0.00,,,0.00,Wunderground v.1.15,2013-05-27 14:34:00,
2013-05-27 10:39:00,62.6,37.9,30.20,ESE,103,5.0,7.0,40,0.00,,,0.00,Wunderground v.1.15,2013-05-27 14:39:00,
2013-05-27 10:44:00,62.3,37.0,30.20,SE,129,5.0,6.0,39,0.00,,,0.00,Wunderground v.1.15,2013-05-27 14:44:00,
2013-05-27 10:50:00,62.4,36.4,30.20,SE,140,5.0,5.0,38,0.00,,,0.00,Wunderground v.1.15,2013-05-27 14:50:00,
2013-05-27 10:55:00,62.1,35.5,30.20,SE,146,4.0,8.0,37,0.00,,,0.00,Wunderground v.1.15,2013-05-27 14:55:00,
2013-05-27 11:00:00,62.4,35.1,30.19,ESE,109,5.0,9.0,36,0.00,,,0.00,Wunderground v.1.15,2013-05-27 15:00:00,
2013-05-27 11:06:00,62.4,34.4,30.19,ESE,108,5.0,9.0,35,0.00,,,0.00,Wunderground v.1.15,2013-05-27 15:06:00,
2013-05-27 11:11:00,62.8,34.0,30.19,ESE,117,4.0,4.0,34,0.00,,,0.00,Wunderground v.1.15,2013-05-27 15:11:00,
2013-05-27 11:16:00,62.6,33.8,30.19,SE,137,4.0,8.0,34,0.00,,,0.00,Wunderground v.1.15,2013-05-27 15:16:00,
2013-05-27 11:22:00,62.6,33.8,30.19,ESE,123,5.0,5.0,34,0.00,,,0.00,Wunderground v.1.15,2013-05-27 15:22:00,
2013-05-27 11:27:00,62.6,33.8,30.19,SE,133,5.0,10.0,34,0.00,,,0.00,Wunderground v.1.15,2013-05-27 15:27:00,
2013-05-27 11:32:00,62.4,34.4,30.19,SE,129,6.0,6.0,35,0.00,,,0.00,Wunderground v.1.15,2013-05-27 15:32:00,
2013-05-27 11:37:00,62.7,36.0,30.18,ESE,115,5.0,9.0,37,0.00,,,0.00,Wunderground v.1.15,2013-05-27 15:37:00,
2013-05-27 11:43:00,63.0,36.3,30.18,ESE,109,5.0,12.0,37,0.00,,,0.00,Wunderground v.1.15,2013-05-27 15:43:00,
2013-05-27 11:48:00,63.1,37.1,30.18,South,182,5.0,12.0,38,0.00,,,0.00,Wunderground v.1.15,2013-05-27 15:48:00,
2013-05-27 11:53:00,62.7,37.4,30.18,SE,140,5.0,8.0,39,0.00,,,0.00,Wunderground v.1.15,2013-05-27 15:53:00,
2013-05-27 11:58:00,62.8,37.5,30.18,ESE,122,6.0,9.0,39,0.00,,,0.00,Wunderground v.1.15,2013-05-27 15:58:00,
2013-05-27 12:04:00,62.9,37.5,30.18,ESE,118,7.0,12.0,39,0.00,,,0.00,Wunderground v.1.15,2013-05-27 16:04:00,
2013-05-27 12:09:00,62.6,38.6,30.17,SSE,164,6.0,12.0,41,0.00,,,0.00,Wunderground v.1.15,2013-05-27 16:09:00,
2013-05-27 12:14:00,62.6,39.2,30.17,ENE,72,6.0,7.0,42,0.00,,,0.00,Wunderground v.1.15,2013-05-27 16:14:00,
2013-05-27 12:19:00,62.7,39.9,30.16,ESE,102,6.0,10.0,43,0.00,,,0.00,Wunderground v.1.15,2013-05-27 16:19:00,
2013-05-27 12:25:00,63.0,41.3,30.16,ESE,117,6.0,10.0,45,0.00,,,0.00,Wunderground v.1.15,2013-05-27 16:25:00,
2013-05-27 12:30:00,62.8,41.7,30.16,ESE,117,5.0,9.0,46,0.00,,,0.00,Wunderground v.1.15,2013-05-27 16:30:00,
2013-05-27 12:35:00,62.7,42.2,30.16,ESE,103,5.0,9.0,47,0.00,,,0.00,Wunderground v.1.15,2013-05-27 16:35:00,
2013-05-27 12:41:00,62.5,41.4,30.15,SE,139,4.0,11.0,46,0.00,,,0.00,Wunderground v.1.15,2013-05-27 16:41:00,
2013-05-27 12:46:00,62.0,39.2,30.15,ESE,105,5.0,11.0,43,0.00,,,0.00,Wunderground v.1.15,2013-05-27 16:46:00,
2013-05-27 12:51:00,62.0,39.2,30.15,East,101,6.0,8.0,43,0.00,,,0.00,Wunderground v.1.15,2013-05-27 16:51:00,
2013-05-27 12:57:00,61.7,40.1,30.14,SSE,165,6.0,9.0,45,0.00,,,0.00,Wunderground v.1.15,2013-05-27 16:57:00,
2013-05-27 13:02:00,61.3,41.4,30.14,SE,133,6.0,6.0,48,0.00,,,0.00,Wunderground v.1.15,2013-05-27 17:02:00,
2013-05-27 13:07:00,60.9,42.6,30.14,SSW,194,6.0,9.0,51,0.00,,,0.00,Wunderground v.1.15,2013-05-27 17:07:00,
2013-05-27 13:12:00,61.0,42.7,30.14,SE,127,5.0,5.0,51,0.00,,,0.00,Wunderground v.1.15,2013-05-27 17:12:00,
2013-05-27 13:17:00,60.8,43.1,30.14,ESE,116,5.0,8.0,52,0.00,,,0.00,Wunderground v.1.15,2013-05-27 17:17:00,
2013-05-27 13:23:00,60.5,43.3,30.14,SE,130,5.0,5.0,53,0.00,,,0.00,Wunderground v.1.15,2013-05-27 17:23:00,
2013-05-27 13:28:00,60.5,43.8,30.14,SE,128,4.0,7.0,54,0.00,,,0.00,Wunderground v.1.15,2013-05-27 17:28:00,
2013-05-27 13:33:00,60.1,44.3,30.15,SE,143,5.0,6.0,56,0.00,,,0.00,Wunderground v.1.15,2013-05-27 17:33:00,
2013-05-27 13:38:00,60.1,43.9,30.15,East,100,6.0,8.0,55,0.00,,,0.00,Wunderground v.1.15,2013-05-27 17:38:00,
2013-05-27 13:44:00,60.1,45.3,30.15,SE,134,5.0,11.0,58,0.00,,,0.00,Wunderground v.1.15,2013-05-27 17:44:00,
2013-05-27 13:49:00,59.8,46.3,30.16,SE,135,5.0,11.0,61,0.00,,,0.00,Wunderground v.1.15,2013-05-27 17:49:00,
2013-05-27 13:54:00,59.4,47.6,30.15,SE,126,4.0,5.0,65,0.00,,,0.00,Wunderground v.1.15,2013-05-27 17:54:00,
2013-05-27 13:59:00,59.1,45.7,30.15,SE,140,5.0,7.0,61,0.00,,,0.00,Wunderground v.1.15,2013-05-27 17:59:00,
2013-05-27 14:05:00,58.8,46.2,30.16,South,191,6.0,10.0,63,0.00,,,0.00,Wunderground v.1.15,2013-05-27 18:05:00,
2013-05-27 14:10:00,58.8,45.4,30.15,SE,130,5.0,5.0,61,0.00,,,0.00,Wunderground v.1.15,2013-05-27 18:10:00,
2013-05-27 14:15:00,58.5,45.9,30.15,SSE,158,5.0,7.0,63,0.00,,,0.00,Wunderground v.1.15,2013-05-27 18:15:00,
2013-05-27 14:21:00,58.0,46.3,30.16,ESE,110,5.0,5.0,65,0.00,,,0.00,Wunderground v.1.15,2013-05-27 18:21:00,
2013-05-27 14:26:00,57.6,46.3,30.15,South,176,5.0,6.0,66,0.00,,,0.00,Wunderground v.1.15,2013-05-27 18:26:00,
2013-05-27 14:31:00,57.7,47.2,30.16,SSE,159,3.0,8.0,68,0.00,,,0.00,Wunderground v.1.15,2013-05-27 18:31:00,
2013-05-27 14:37:00,57.7,47.6,30.16,SE,146,3.0,8.0,69,0.00,,,0.00,Wunderground v.1.15,2013-05-27 18:37:00,
2013-05-27 14:42:00,57.5,47.4,30.16,SSW,192,4.0,4.0,69,0.00,,,0.00,Wunderground v.1.15,2013-05-27 18:42:00,
2013-05-27 14:47:00,57.4,48.1,30.16,South,190,4.0,5.0,71,0.00,,,0.00,Wunderground v.1.15,2013-05-27 18:47:00,
2013-05-27 14:52:00,57.3,48.3,30.16,South,172,3.0,5.0,72,0.00,,,0.00,Wunderground v.1.15,2013-05-27 18:52:00,
2013-05-27 14:58:00,56.5,47.6,30.16,SSW,192,5.0,7.0,72,0.00,,,0.00,Wunderground v.1.15,2013-05-27 18:58:00,
2013-05-27 15:03:00,56.4,47.9,30.16,SSE,150,6.0,7.0,73,0.00,,,0.00,Wunderground v.1.15,2013-05-27 19:03:00,
2013-05-27 15:08:00,56.0,47.1,30.16,South,186,5.0,7.0,72,0.00,,,0.00,Wunderground v.1.15,2013-05-27 19:08:00,
2013-05-27 15:13:00,55.9,47.4,30.16,SSW,210,4.0,6.0,73,0.00,,,0.00,Wunderground v.1.15,2013-05-27 19:13:00,
2013-05-27 15:19:00,55.8,47.3,30.16,SSE,164,3.0,6.0,73,0.00,,,0.00,Wunderground v.1.15,2013-05-27 19:19:00,
2013-05-27 15:24:00,55.4,46.2,30.16,SSE,161,4.0,7.0,71,0.00,,,0.00,Wunderground v.1.15,2013-05-27 19:24:00,
2013-05-27 15:29:00,55.3,46.8,30.16,East,90,4.0,7.0,73,0.00,,,0.00,Wunderground v.1.15,2013-05-27 19:29:00,
2013-05-27 15:35:00,55.0,46.5,30.16,SE,130,4.0,7.0,73,0.00,,,0.00,Wunderground v.1.15,2013-05-27 19:35:00,
2013-05-27 15:40:00,54.3,46.2,30.15,ESE,121,5.0,9.0,74,0.00,,,0.01,Wunderground v.1.15,2013-05-27 19:40:00,
2013-05-27 15:45:00,54.0,46.6,30.15,SE,144,6.0,9.0,76,0.00,,,0.01,Wunderground v.1.15,2013-05-27 19:45:00,
2013-05-27 15:51:00,54.0,47.6,30.15,SE,132,5.0,10.0,79,0.00,,,0.01,Wunderground v.1.15,2013-05-27 19:51:00,
2013-05-27 15:56:00,53.8,47.4,30.15,SE,130,5.0,10.0,79,0.00,,,0.01,Wunderground v.1.15,2013-05-27 19:56:00,
2013-05-27 16:01:00,53.5,47.1,30.14,SE,140,6.0,6.0,79,0.00,,,0.01,Wunderground v.1.15,2013-05-27 20:01:00,
2013-05-27 16:07:00,53.5,47.8,30.14,SE,124,5.0,6.0,81,0.00,,,0.01,Wunderground v.1.15,2013-05-27 20:07:00,
2013-05-27 16:12:00,53.5,48.5,30.14,ESE,118,4.0,4.0,83,0.00,,,0.01,Wunderground v.1.15,2013-05-27 20:12:00,
2013-05-27 16:17:00,53.6,48.6,30.14,SE,134,3.0,4.0,83,0.00,,,0.01,Wunderground v.1.15,2013-05-27 20:17:00,
2013-05-27 16:22:00,53.6,48.9,30.13,ESE,119,3.0,5.0,84,0.00,,,0.01,Wunderground v.1.15,2013-05-27 20:22:00,
2013-05-27 16:27:00,53.5,48.8,30.13,ESE,119,4.0,7.0,84,0.00,,,0.01,Wunderground v.1.15,2013-05-27 20:27:00,
2013-05-27 16:33:00,53.6,49.2,30.12,ESE,116,4.0,5.0,85,0.00,,,0.01,Wunderground v.1.15,2013-05-27 20:33:00,
2013-05-27 16:38:00,53.5,49.1,30.12,ESE,107,4.0,5.0,85,0.00,,,0.01,Wunderground v.1.15,2013-05-27 20:38:00,
2013-05-27 16:43:00,53.5,49.4,30.12,ESE,110,4.0,5.0,86,0.00,,,0.01,Wunderground v.1.15,2013-05-27 20:43:00,
2013-05-27 16:49:00,53.6,49.8,30.12,ESE,112,4.0,7.0,87,0.00,,,0.02,Wunderground v.1.15,2013-05-27 20:49:00,
2013-05-27 16:54:00,53.5,49.7,30.11,ESE,106,3.0,5.0,87,0.00,,,0.02,Wunderground v.1.15,2013-05-27 20:54:00,
2013-05-27 16:59:00,53.6,50.1,30.11,SE,124,3.0,5.0,88,0.00,,,0.02,Wunderground v.1.15,2013-05-27 20:59:00,
2013-05-27 17:04:00,53.5,50.3,30.11,SE,130,3.0,4.0,89,0.00,,,0.02,Wunderground v.1.15,2013-05-27 21:04:00,
2013-05-27 17:09:00,53.3,50.1,30.11,ESE,117,4.0,9.0,89,0.00,,,0.02,Wunderground v.1.15,2013-05-27 21:09:00,
2013-05-27 17:15:00,53.3,50.1,30.11,ESE,105,4.0,4.0,89,0.00,,,0.03,Wunderground v.1.15,2013-05-27 21:15:00,
2013-05-27 17:20:00,53.3,50.4,30.10,East,98,3.0,5.0,90,0.00,,,0.03,Wunderground v.1.15,2013-05-27 21:20:00,
2013-05-27 17:25:00,53.0,50.1,30.10,East,88,4.0,7.0,90,0.05,,,0.04,Wunderground v.1.15,2013-05-27 21:25:00,
2013-05-27 17:30:00,53.0,50.1,30.10,East,89,5.0,5.0,90,0.05,,,0.04,Wunderground v.1.15,2013-05-27 21:30:00,
2013-05-27 17:36:00,53.0,50.1,30.09,East,98,4.0,7.0,90,0.05,,,0.04,Wunderground v.1.15,2013-05-27 21:36:00,
2013-05-27 17:41:00,52.9,50.3,30.09,East,90,5.0,7.0,91,0.05,,,0.05,Wunderground v.1.15,2013-05-27 21:41:00,
2013-05-27 17:47:00,52.6,49.8,30.09,East,98,6.0,9.0,90,0.06,,,0.05,Wunderground v.1.15,2013-05-27 21:47:00,
2013-05-27 17:52:00,52.5,49.9,30.09,East,79,6.0,9.0,91,0.06,,,0.06,Wunderground v.1.15,2013-05-27 21:52:00,
2013-05-27 17:57:00,52.7,50.1,30.09,East,90,5.0,9.0,91,0.06,,,0.06,Wunderground v.1.15,2013-05-27 21:57:00,
2013-05-27 18:02:00,52.6,50.0,30.08,ESE,119,4.0,5.0,91,0.06,,,0.07,Wunderground v.1.15,2013-05-27 22:02:00,
2013-05-27 18:07:00,52.6,50.3,30.08,ESE,116,4.0,5.0,92,0.06,,,0.07,Wunderground v.1.15,2013-05-27 22:07:00,
2013-05-27 18:13:00,52.7,50.4,30.08,ESE,109,3.0,7.0,92,0.04,,,0.08,Wunderground v.1.15,2013-05-27 22:13:00,
2013-05-27 18:18:00,52.6,50.3,30.08,ESE,114,4.0,7.0,92,0.04,,,0.08,Wunderground v.1.15,2013-05-27 22:18:00,
2013-05-27 18:23:00,52.5,50.2,30.08,East,101,4.0,13.0,92,0.04,,,0.08,Wunderground v.1.15,2013-05-27 22:23:00,
2013-05-27 18:29:00,52.2,49.9,30.08,East,89,6.0,13.0,92,0.04,,,0.08,Wunderground v.1.15,2013-05-27 22:29:00,
2013-05-27 18:35:00,52.1,49.8,30.08,ESE,111,7.0,8.0,92,0.00,,,0.08,Wunderground v.1.15,2013-05-27 22:35:00,
2013-05-27 18:40:00,52.2,49.9,30.07,East,92,6.0,6.0,92,0.00,,,0.09,Wunderground v.1.15,2013-05-27 22:40:00,
2013-05-27 18:45:00,52.1,49.8,30.07,ESE,109,5.0,6.0,92,0.00,,,0.09,Wunderground v.1.15,2013-05-27 22:45:00,
2013-05-27 18:50:00,52.1,49.8,30.07,SSE,160,4.0,4.0,92,0.00,,,0.09,Wunderground v.1.15,2013-05-27 22:50:00,
2013-05-27 18:55:00,52.1,49.8,30.07,ESE,112,3.0,8.0,92,0.00,,,0.09,Wunderground v.1.15,2013-05-27 22:55:00,
2013-05-27 19:00:00,51.9,49.6,30.06,East,97,4.0,7.0,92,0.00,,,0.09,Wunderground v.1.15,2013-05-27 23:00:00,
2013-05-27 19:06:00,51.8,49.5,30.06,East,81,5.0,9.0,92,0.00,,,0.09,Wunderground v.1.15,2013-05-27 23:06:00,
2013-05-27 19:12:00,51.7,49.5,30.06,East,88,5.0,6.0,92,0.00,,,0.09,Wunderground v.1.15,2013-05-27 23:12:00,
2013-05-27 19:17:00,51.7,49.5,30.06,ESE,111,5.0,6.0,92,0.00,,,0.09,Wunderground v.1.15,2013-05-27 23:17:00,
2013-05-27 19:22:00,51.8,49.5,30.06,ESE,123,4.0,5.0,92,0.00,,,0.09,Wunderground v.1.15,2013-05-27 23:22:00,
2013-05-27 19:27:00,51.7,49.5,30.06,ESE,109,4.0,12.0,92,0.00,,,0.09,Wunderground v.1.15,2013-05-27 23:27:00,
2013-05-27 19:32:00,51.7,49.5,30.05,East,96,5.0,5.0,92,0.00,,,0.09,Wunderground v.1.15,2013-05-27 23:32:00,
2013-05-27 19:38:00,51.8,49.8,30.05,East,92,5.0,7.0,93,0.00,,,0.09,Wunderground v.1.15,2013-05-27 23:38:00,
2013-05-27 19:43:00,51.7,49.5,30.05,East,94,5.0,9.0,92,0.00,,,0.09,Wunderground v.1.15,2013-05-27 23:43:00,
2013-05-27 19:48:00,51.8,49.8,30.05,East,96,5.0,9.0,93,0.00,,,0.09,Wunderground v.1.15,2013-05-27 23:48:00,
2013-05-27 19:53:00,51.7,49.7,30.05,ESE,109,4.0,5.0,93,0.00,,,0.09,Wunderground v.1.15,2013-05-27 23:53:00,
2013-05-27 19:59:00,51.7,49.7,30.05,SE,132,4.0,7.0,93,0.00,,,0.09,Wunderground v.1.15,2013-05-27 23:59:00,
2013-05-27 20:04:00,51.8,49.8,30.05,ESE,111,4.0,7.0,93,0.00,,,0.09,Wunderground v.1.15,2013-05-28 00:04:00,
2013-05-27 20:10:00,51.7,49.7,30.05,ESE,110,5.0,7.0,93,0.00,,,0.09,Wunderground v.1.15,2013-05-28 00:10:00,
2013-05-27 20:15:00,51.5,49.5,30.04,East,98,6.0,9.0,93,0.00,,,0.09,Wunderground v.1.15,2013-05-28 00:15:00,
2013-05-27 20:20:00,51.6,49.6,30.04,East,97,6.0,6.0,93,0.00,,,0.09,Wunderground v.1.15,2013-05-28 00:20:00,
2013-05-27 20:25:00,51.5,49.5,30.04,ESE,104,5.0,6.0,93,0.00,,,0.10,Wunderground v.1.15,2013-05-28 00:25:00,
2013-05-27 20:30:00,51.5,49.5,30.04,ESE,115,5.0,5.0,93,0.00,,,0.10,Wunderground v.1.15,2013-05-28 00:30:00,
2013-05-27 20:36:00,51.3,49.3,30.04,ESE,118,5.0,7.0,93,0.00,,,0.10,Wunderground v.1.15,2013-05-28 00:36:00,
2013-05-27 20:41:00,51.3,49.3,30.04,ESE,105,6.0,6.0,93,0.00,,,0.10,Wunderground v.1.15,2013-05-28 00:41:00,
2013-05-27 20:47:00,51.2,49.2,30.03,East,101,5.0,9.0,93,0.00,,,0.10,Wunderground v.1.15,2013-05-28 00:47:00,
2013-05-27 20:52:00,51.2,49.5,30.04,East,100,5.0,9.0,94,0.00,,,0.10,Wunderground v.1.15,2013-05-28 00:52:00,
2013-05-27 20:57:00,51.2,49.5,30.04,ESE,107,5.0,9.0,94,0.00,,,0.11,Wunderground v.1.15,2013-05-28 00:57:00,
2013-05-27 21:02:00,51.1,49.4,30.04,East,89,4.0,8.0,94,0.00,,,0.11,Wunderground v.1.15,2013-05-28 01:02:00,
2013-05-27 21:08:00,51.0,49.3,30.04,ESE,103,5.0,8.0,94,0.00,,,0.11,Wunderground v.1.15,2013-05-28 01:08:00,
2013-05-27 21:13:00,51.0,49.3,30.03,East,101,5.0,8.0,94,0.04,,,0.12,Wunderground v.1.15,2013-05-28 01:13:00,
2013-05-27 21:18:00,51.0,49.3,30.03,East,95,5.0,8.0,94,0.04,,,0.12,Wunderground v.1.15,2013-05-28 01:18:00,
2013-05-27 21:24:00,51.0,49.3,30.03,ESE,102,5.0,6.0,94,0.06,,,0.13,Wunderground v.1.15,2013-05-28 01:24:00,
2013-05-27 21:29:00,50.9,49.2,30.02,East,101,5.0,9.0,94,0.06,,,0.13,Wunderground v.1.15,2013-05-28 01:29:00,
2013-05-27 21:34:00,51.0,49.3,30.03,ESE,103,5.0,5.0,94,0.04,,,0.13,Wunderground v.1.15,2013-05-28 01:34:00,
2013-05-27 21:39:00,50.9,49.2,30.03,East,94,5.0,6.0,94,0.00,,,0.14,Wunderground v.1.15,2013-05-28 01:39:00,
2013-05-27 21:45:00,50.9,49.2,30.02,East,82,5.0,7.0,94,0.12,,,0.15,Wunderground v.1.15,2013-05-28 01:45:00,
2013-05-27 21:50:00,50.9,49.5,30.03,East,86,5.0,5.0,95,0.08,,,0.15,Wunderground v.1.15,2013-05-28 01:50:00,
2013-05-27 21:55:00,50.9,49.5,30.03,East,90,5.0,7.0,95,0.06,,,0.16,Wunderground v.1.15,2013-05-28 01:55:00,
2013-05-27 22:01:00,51.0,49.6,30.03,East,95,6.0,6.0,95,0.18,,,0.18,Wunderground v.1.15,2013-05-28 02:01:00,
2013-05-27 22:06:00,51.0,49.6,30.03,East,95,5.0,6.0,95,0.14,,,0.19,Wunderground v.1.15,2013-05-28 02:06:00,
2013-05-27 22:11:00,51.1,49.7,30.03,East,84,4.0,7.0,95,0.16,,,0.20,Wunderground v.1.15,2013-05-28 02:11:00,
2013-05-27 22:17:00,51.2,49.8,30.03,East,88,5.0,7.0,95,0.13,,,0.22,Wunderground v.1.15,2013-05-28 02:17:00,
2013-05-27 22:22:00,51.2,49.8,30.03,East,100,4.0,5.0,95,0.19,,,0.23,Wunderground v.1.15,2013-05-28 02:22:00,
2013-05-27 22:27:00,51.2,49.8,30.03,ESE,110,4.0,5.0,95,0.13,,,0.24,Wunderground v.1.15,2013-05-28 02:27:00,
2013-05-27 22:33:00,51.2,49.8,30.03,East,98,4.0,6.0,95,0.11,,,0.25,Wunderground v.1.15,2013-05-28 02:33:00,
2013-05-27 22:38:00,51.3,49.9,30.03,East,96,5.0,6.0,95,0.06,,,0.26,Wunderground v.1.15,2013-05-28 02:38:00,
2013-05-27 22:43:00,51.3,49.9,30.03,East,95,5.0,6.0,95,0.06,,,0.26,Wunderground v.1.15,2013-05-28 02:43:00,
2013-05-27 22:48:00,51.2,49.8,30.03,ESE,106,6.0,9.0,95,0.09,,,0.27,Wunderground v.1.15,2013-05-28 02:48:00,
2013-05-27 22:54:00,51.3,49.9,30.03,ESE,110,6.0,7.0,95,0.06,,,0.27,Wunderground v.1.15,2013-05-28 02:54:00,
2013-05-27 23:00:00,51.3,49.9,30.03,ESE,114,6.0,9.0,95,0.06,,,0.28,Wunderground v.1.15,2013-05-28 03:00:00,
2013-05-27 23:06:00,51.4,50.0,30.03,East,96,6.0,9.0,95,0.05,,,0.29,Wunderground v.1.15,2013-05-28 03:06:00,
2013-05-27 23:12:00,51.4,50.3,30.02,ESE,117,5.0,5.0,96,0.34,,,0.30,Wunderground v.1.15,2013-05-28 03:12:00,
2013-05-27 23:17:00,51.4,50.3,30.02,ESE,107,5.0,9.0,96,0.34,,,0.31,Wunderground v.1.15,2013-05-28 03:17:00,
2013-05-27 23:22:00,51.4,50.3,30.02,ESE,111,5.0,7.0,96,0.10,,,0.32,Wunderground v.1.15,2013-05-28 03:22:00,
2013-05-27 23:27:00,51.4,50.3,30.02,East,91,5.0,7.0,96,0.10,,,0.33,Wunderground v.1.15,2013-05-28 03:27:00,
2013-05-27 23:33:00,51.5,50.4,30.02,ESE,113,6.0,9.0,96,0.10,,,0.34,Wunderground v.1.15,2013-05-28 03:33:00,
2013-05-27 23:38:00,51.4,50.3,30.01,ESE,114,6.0,9.0,96,0.09,,,0.34,Wunderground v.1.15,2013-05-28 03:38:00,
2013-05-27 23:43:00,51.4,50.3,30.01,ESE,103,7.0,9.0,96,0.09,,,0.35,Wunderground v.1.15,2013-05-28 03:43:00,
2013-05-27 23:48:00,51.4,50.3,30.01,ESE,108,7.0,9.0,96,0.05,,,0.35,Wunderground v.1.15,2013-05-28 03:48:00,
2013-05-27 23:54:00,51.4,50.3,30.01,East,81,7.0,7.0,96,0.04,,,0.35,Wunderground v.1.15,2013-05-28 03:54:00,
2013-05-27 23:59:00,51.5,50.4,30.00,East,92,7.0,7.0,96,0.00,,,0.00,Wunderground v.1.15,2013-05-28 03:59:00,